Location: ?????
(31.8092°N, 35.2590°E)
Time: 17:46:02
(UTC+00:00)

FALCON 9 DEB - Pass Details

Date: 20 June 2021
Orbit: 358 x 373 km, 53.0° (Epoch: 31 July)

Event Time Altitude Azimuth Distance (km) Brightness Sun altitude
Rises 17:26:28 0° 224° (SW) 2,227 6.9 -7.9°
Reaches altitude 10° 17:28:30 10° 225° (SW) 1,382 5.8 -8.3°
Maximum altitude 17:31:35 82° 312° (NW) 386 2.9 -8.8°
Drops below altitude 10° 17:34:43 10° 41° (NE) 1,395 5.6 -9.3°
Sets 17:36:46 0° 43° (NE) 2,251 6.7 -9.7°
